Year,Month,Day,Hour,Minute,Value (Times are PST for temperature in C)
2011,05,23,00,00,8.20
2011,05,23,00,01,8.20
2011,05,23,00,02,8.30
2011,05,23,00,03,8.30
2011,05,23,00,04,8.30
2011,05,23,00,05,8.40
2011,05,23,00,06,8.40
2011,05,23,00,07,8.40
2011,05,23,00,08,8.50
2011,05,23,00,09,8.50
2011,05,23,00,10,8.60
2011,05,23,00,11,8.60
2011,05,23,00,12,8.60
2011,05,23,00,13,8.60
2011,05,23,00,14,8.70
2011,05,23,00,15,8.70
2011,05,23,00,16,8.70
2011,05,23,00,17,8.70
2011,05,23,00,18,8.60
2011,05,23,00,19,8.60
2011,05,23,00,20,8.60
2011,05,23,00,21,8.60
2011,05,23,00,22,8.50
2011,05,23,00,23,8.50
2011,05,23,00,24,8.40
2011,05,23,00,25,8.30
2011,05,23,00,26,8.30
2011,05,23,00,27,8.30
2011,05,23,00,28,8.20
2011,05,23,00,29,8.20
2011,05,23,00,30,8.20
2011,05,23,00,31,8.20
2011,05,23,00,32,8.10
2011,05,23,00,33,8.10
2011,05,23,00,34,8.10
2011,05,23,00,35,8.10
2011,05,23,00,36,8.10
2011,05,23,00,37,8.00
2011,05,23,00,38,8.00
2011,05,23,00,39,8.00
2011,05,23,00,40,8.00
2011,05,23,00,41,8.00
2011,05,23,00,42,8.00
2011,05,23,00,43,8.00
2011,05,23,00,44,8.00
2011,05,23,00,45,7.90
2011,05,23,00,46,7.90
2011,05,23,00,47,7.90
2011,05,23,00,48,7.90
2011,05,23,00,49,7.90
2011,05,23,00,50,7.90
2011,05,23,00,51,7.90
2011,05,23,00,52,7.90
2011,05,23,00,53,7.80
2011,05,23,00,54,7.80
2011,05,23,00,55,7.80
2011,05,23,00,56,7.80
2011,05,23,00,57,7.80
2011,05,23,00,58,7.70
2011,05,23,00,59,7.70
2011,05,23,01,00,7.70
2011,05,23,01,01,7.60
2011,05,23,01,02,7.60
2011,05,23,01,03,7.60
2011,05,23,01,04,7.50
2011,05,23,01,05,7.50
2011,05,23,01,06,7.40
2011,05,23,01,07,7.40
2011,05,23,01,08,7.40
2011,05,23,01,09,7.40
2011,05,23,01,10,7.30
2011,05,23,01,11,7.30
2011,05,23,01,12,7.30
2011,05,23,01,13,7.30
2011,05,23,01,14,7.20
2011,05,23,01,15,7.20
2011,05,23,01,16,7.20
2011,05,23,01,17,7.20
2011,05,23,01,18,7.20
2011,05,23,01,19,7.20
2011,05,23,01,20,7.20
2011,05,23,01,21,7.20
2011,05,23,01,22,7.20
2011,05,23,01,23,7.20
2011,05,23,01,24,7.20
2011,05,23,01,25,7.20
2011,05,23,01,26,7.20
2011,05,23,01,27,7.20
2011,05,23,01,28,7.20
2011,05,23,01,29,7.20
2011,05,23,01,30,7.20
2011,05,23,01,31,7.20
2011,05,23,01,32,7.20
2011,05,23,01,33,7.20
2011,05,23,01,34,7.10
2011,05,23,01,35,7.10
2011,05,23,01,36,7.10
2011,05,23,01,37,7.10
2011,05,23,01,38,7.00
2011,05,23,01,39,7.00
2011,05,23,01,40,6.90
2011,05,23,01,41,6.90
2011,05,23,01,42,6.80
2011,05,23,01,43,6.80
2011,05,23,01,44,6.80
2011,05,23,01,45,6.70
2011,05,23,01,46,6.70
2011,05,23,01,47,6.60
2011,05,23,01,48,6.60
2011,05,23,01,49,6.50
2011,05,23,01,50,6.50
2011,05,23,01,51,6.40
2011,05,23,01,52,6.40
2011,05,23,01,53,6.40
2011,05,23,01,54,6.30
2011,05,23,01,55,6.30
2011,05,23,01,56,6.20
2011,05,23,01,57,6.20
2011,05,23,01,58,6.10
2011,05,23,01,59,6.10
2011,05,23,02,00,6.10
2011,05,23,02,01,6.00
2011,05,23,02,02,6.00
2011,05,23,02,03,5.90
2011,05,23,02,04,5.90
2011,05,23,02,05,5.90
2011,05,23,02,06,5.80
2011,05,23,02,07,5.80
2011,05,23,02,08,5.80
2011,05,23,02,09,5.80
2011,05,23,02,10,5.70
2011,05,23,02,11,5.70
2011,05,23,02,12,5.70
2011,05,23,02,13,5.60
2011,05,23,02,14,5.60
2011,05,23,02,15,5.60
2011,05,23,02,16,5.60
2011,05,23,02,17,5.50
2011,05,23,02,18,5.50
2011,05,23,02,19,5.50
2011,05,23,02,20,5.40
2011,05,23,02,21,5.40
2011,05,23,02,22,5.40
2011,05,23,02,23,5.40
2011,05,23,02,24,5.40
2011,05,23,02,25,5.40
2011,05,23,02,26,5.40
2011,05,23,02,27,5.30
2011,05,23,02,28,5.30
2011,05,23,02,29,5.30
2011,05,23,02,30,5.30
2011,05,23,02,31,5.30
2011,05,23,02,32,5.30
2011,05,23,02,33,5.30
2011,05,23,02,34,5.30
2011,05,23,02,35,5.30
2011,05,23,02,36,5.30
2011,05,23,02,37,5.30
2011,05,23,02,38,5.30
2011,05,23,02,39,5.30
2011,05,23,02,40,5.30
2011,05,23,02,41,5.30
2011,05,23,02,42,5.20
2011,05,23,02,43,5.20
2011,05,23,02,44,5.20
2011,05,23,02,45,5.20
2011,05,23,02,46,5.20
2011,05,23,02,47,5.20
2011,05,23,02,48,5.20
2011,05,23,02,49,5.10
2011,05,23,02,50,5.10
2011,05,23,02,51,5.10
2011,05,23,02,52,5.10
2011,05,23,02,53,5.10
2011,05,23,02,54,5.10
2011,05,23,02,55,5.10
2011,05,23,02,56,5.10
2011,05,23,02,57,5.10
2011,05,23,02,58,5.10
2011,05,23,02,59,5.00
2011,05,23,03,00,5.00
2011,05,23,03,01,5.00
2011,05,23,03,02,5.00
2011,05,23,03,03,4.90
2011,05,23,03,04,4.90
2011,05,23,03,05,4.90
2011,05,23,03,06,4.90
2011,05,23,03,07,4.90
2011,05,23,03,08,4.90
2011,05,23,03,09,4.80
2011,05,23,03,10,4.80
2011,05,23,03,11,4.80
2011,05,23,03,12,4.80
2011,05,23,03,13,4.80
2011,05,23,03,14,4.80
2011,05,23,03,15,4.80
2011,05,23,03,16,4.80
2011,05,23,03,17,4.80
2011,05,23,03,18,4.80
2011,05,23,03,19,4.80
2011,05,23,03,20,4.70
2011,05,23,03,21,4.70
2011,05,23,03,22,4.70
2011,05,23,03,23,4.70
2011,05,23,03,24,4.70
2011,05,23,03,25,4.70
2011,05,23,03,26,4.70
2011,05,23,03,27,4.70
2011,05,23,03,28,4.70
2011,05,23,03,29,4.70
2011,05,23,03,30,4.70
2011,05,23,03,31,4.60
2011,05,23,03,32,4.60
2011,05,23,03,33,4.60
2011,05,23,03,34,4.60
2011,05,23,03,35,4.60
2011,05,23,03,36,4.60
2011,05,23,03,37,4.60
2011,05,23,03,38,4.50
2011,05,23,03,39,4.50
2011,05,23,03,40,4.50
2011,05,23,03,41,4.50
2011,05,23,03,42,4.40
2011,05,23,03,43,4.40
2011,05,23,03,44,4.40
2011,05,23,03,45,4.40
2011,05,23,03,46,4.40
2011,05,23,03,47,4.40
2011,05,23,03,48,4.40
2011,05,23,03,49,4.30
2011,05,23,03,50,4.30
2011,05,23,03,51,4.30
2011,05,23,03,52,4.30
2011,05,23,03,53,4.30
2011,05,23,03,54,4.30
2011,05,23,03,55,4.30
2011,05,23,03,56,4.20
2011,05,23,03,57,4.20
2011,05,23,03,58,4.20
2011,05,23,03,59,4.20
2011,05,23,04,00,4.20
2011,05,23,04,01,4.20
2011,05,23,04,02,4.10
2011,05,23,04,03,4.10
2011,05,23,04,04,4.10
2011,05,23,04,05,4.10
2011,05,23,04,06,4.10
2011,05,23,04,07,4.10
2011,05,23,04,08,4.00
2011,05,23,04,09,4.00
2011,05,23,04,10,4.00
2011,05,23,04,11,3.90
2011,05,23,04,12,3.90
2011,05,23,04,13,3.90
2011,05,23,04,14,3.90
2011,05,23,04,15,3.90
2011,05,23,04,16,3.90
2011,05,23,04,17,3.90
2011,05,23,04,18,3.90
2011,05,23,04,19,3.90
2011,05,23,04,20,3.90
2011,05,23,04,21,3.90
2011,05,23,04,22,3.90
2011,05,23,04,23,3.90
2011,05,23,04,24,3.80
2011,05,23,04,25,3.80
2011,05,23,04,26,3.80
2011,05,23,04,27,3.80
2011,05,23,04,28,3.80
2011,05,23,04,29,3.80
2011,05,23,04,30,3.80
2011,05,23,04,31,3.80
2011,05,23,04,32,3.80
2011,05,23,04,33,3.80
2011,05,23,04,34,3.80
2011,05,23,04,35,3.80
2011,05,23,04,36,3.80
2011,05,23,04,37,3.80
2011,05,23,04,38,3.80
2011,05,23,04,39,3.80
2011,05,23,04,40,3.70
2011,05,23,04,41,3.70
2011,05,23,04,42,3.70
2011,05,23,04,43,3.70
2011,05,23,04,44,3.70
2011,05,23,04,45,3.70
2011,05,23,04,46,3.70
2011,05,23,04,47,3.70
2011,05,23,04,48,3.70
2011,05,23,04,49,3.60
2011,05,23,04,50,3.60
2011,05,23,04,51,3.60
2011,05,23,04,52,3.60
2011,05,23,04,53,3.60
2011,05,23,04,54,3.60
2011,05,23,04,55,3.60
2011,05,23,04,56,3.60
2011,05,23,04,57,3.60
2011,05,23,04,58,3.60
2011,05,23,04,59,3.60
2011,05,23,05,00,3.60
2011,05,23,05,01,3.60
2011,05,23,05,02,3.60
2011,05,23,05,03,3.60
2011,05,23,05,04,3.60
2011,05,23,05,05,3.70
2011,05,23,05,06,3.70
2011,05,23,05,07,3.70
2011,05,23,05,08,3.70
2011,05,23,05,09,3.70
2011,05,23,05,10,3.70
2011,05,23,05,11,3.70
2011,05,23,05,12,3.70
2011,05,23,05,13,3.70
2011,05,23,05,14,3.70
2011,05,23,05,15,3.70
2011,05,23,05,16,3.60
2011,05,23,05,17,3.70
2011,05,23,05,18,3.70
2011,05,23,05,19,3.70
2011,05,23,05,20,3.70
2011,05,23,05,21,3.70
2011,05,23,05,22,3.70
2011,05,23,05,23,3.70
2011,05,23,05,24,3.70
2011,05,23,05,25,3.70
2011,05,23,05,26,3.70
2011,05,23,05,27,3.70
2011,05,23,05,28,3.70
2011,05,23,05,29,3.70
2011,05,23,05,30,3.70
2011,05,23,05,31,3.70
2011,05,23,05,32,3.70
2011,05,23,05,33,3.70
2011,05,23,05,34,3.80
2011,05,23,05,35,3.80
2011,05,23,05,36,3.80
2011,05,23,05,37,3.80
2011,05,23,05,38,3.80
2011,05,23,05,39,3.80
2011,05,23,05,40,3.80
2011,05,23,05,41,3.80
2011,05,23,05,42,3.80
2011,05,23,05,43,3.80
2011,05,23,05,44,3.90
2011,05,23,05,45,3.90
2011,05,23,05,46,3.90
2011,05,23,05,47,3.90
2011,05,23,05,48,3.90
2011,05,23,05,49,3.90
2011,05,23,05,50,3.90
2011,05,23,05,51,4.00
2011,05,23,05,52,4.00
2011,05,23,05,53,4.00
2011,05,23,05,54,4.00
2011,05,23,05,55,4.10
2011,05,23,05,56,4.10
2011,05,23,05,57,4.10
2011,05,23,05,58,4.10
2011,05,23,05,59,4.10
2011,05,23,06,00,4.10
2011,05,23,06,01,4.10
2011,05,23,06,02,4.20
2011,05,23,06,03,4.20
2011,05,23,06,04,4.20
2011,05,23,06,05,4.20
2011,05,23,06,06,4.20
2011,05,23,06,07,4.20
2011,05,23,06,08,4.20
2011,05,23,06,09,4.30
2011,05,23,06,10,4.30
2011,05,23,06,11,4.30
2011,05,23,06,12,4.30
2011,05,23,06,13,4.30
2011,05,23,06,14,4.30
2011,05,23,06,15,4.30
2011,05,23,06,16,4.40
2011,05,23,06,17,4.40
2011,05,23,06,18,4.40
2011,05,23,06,19,4.40
2011,05,23,06,20,4.40
2011,05,23,06,21,4.40
2011,05,23,06,22,4.50
2011,05,23,06,23,4.50
2011,05,23,06,24,4.50
2011,05,23,06,25,4.60
2011,05,23,06,26,4.60
2011,05,23,06,27,4.60
2011,05,23,06,28,4.60
2011,05,23,06,29,4.60
2011,05,23,06,30,4.70
2011,05,23,06,31,4.70
2011,05,23,06,32,4.80
2011,05,23,06,33,4.80
2011,05,23,06,34,4.80
2011,05,23,06,35,4.80
2011,05,23,06,36,4.90
2011,05,23,06,37,4.90
2011,05,23,06,38,4.90
2011,05,23,06,39,4.90
2011,05,23,06,40,5.00
2011,05,23,06,41,5.00
2011,05,23,06,42,5.10
2011,05,23,06,43,5.10
2011,05,23,06,44,5.10
2011,05,23,06,45,5.20
2011,05,23,06,46,5.20
2011,05,23,06,47,5.20
2011,05,23,06,48,5.30
2011,05,23,06,49,5.30
2011,05,23,06,50,5.40
2011,05,23,06,51,5.40
2011,05,23,06,52,5.40
2011,05,23,06,53,5.50
2011,05,23,06,54,5.50
2011,05,23,06,55,5.60
2011,05,23,06,56,5.60
2011,05,23,06,57,5.70
2011,05,23,06,58,5.70
2011,05,23,06,59,5.70
2011,05,23,07,00,5.80
2011,05,23,07,01,5.80
2011,05,23,07,02,5.90
2011,05,23,07,03,5.90
2011,05,23,07,04,5.90
2011,05,23,07,05,6.00
2011,05,23,07,06,6.10
2011,05,23,07,07,6.10
2011,05,23,07,08,6.20
2011,05,23,07,09,6.20
2011,05,23,07,10,6.30
2011,05,23,07,11,6.30
2011,05,23,07,12,6.40
2011,05,23,07,13,6.50
2011,05,23,07,14,6.50
2011,05,23,07,15,6.50
2011,05,23,07,16,6.60
2011,05,23,07,17,6.60
2011,05,23,07,18,6.70
2011,05,23,07,19,6.70
2011,05,23,07,20,6.80
2011,05,23,07,21,6.90
2011,05,23,07,22,7.00
2011,05,23,07,23,7.10
2011,05,23,07,24,7.20
2011,05,23,07,25,7.30
2011,05,23,07,26,7.40
2011,05,23,07,27,7.60
2011,05,23,07,28,7.70
2011,05,23,07,29,7.80
2011,05,23,07,30,7.90
2011,05,23,07,31,8.00
2011,05,23,07,32,8.10
2011,05,23,07,33,8.20
2011,05,23,07,34,8.20
2011,05,23,07,35,8.30
2011,05,23,07,36,8.30
2011,05,23,07,37,8.40
2011,05,23,07,38,8.40
2011,05,23,07,39,8.50
2011,05,23,07,40,8.60
2011,05,23,07,41,8.70
2011,05,23,07,42,8.80
2011,05,23,07,43,8.90
2011,05,23,07,44,9.00
2011,05,23,07,45,9.00
2011,05,23,07,46,9.10
2011,05,23,07,47,9.10
2011,05,23,07,48,9.20
2011,05,23,07,49,9.30
2011,05,23,07,50,9.40
2011,05,23,07,51,9.50
2011,05,23,07,52,9.60
2011,05,23,07,53,9.80
2011,05,23,07,54,9.90
2011,05,23,07,55,10.10
2011,05,23,07,56,10.20
2011,05,23,07,57,10.30
2011,05,23,07,58,10.40
2011,05,23,07,59,10.50
2011,05,23,08,00,10.60
2011,05,23,08,01,10.70
2011,05,23,08,02,10.80
2011,05,23,08,03,10.80
2011,05,23,08,04,10.90
2011,05,23,08,05,11.00
2011,05,23,08,06,11.00
2011,05,23,08,07,11.10
2011,05,23,08,08,11.10
2011,05,23,08,09,11.20
2011,05,23,08,10,11.20
2011,05,23,08,11,11.30
2011,05,23,08,12,11.30
2011,05,23,08,13,11.30
2011,05,23,08,14,11.40
2011,05,23,08,15,11.50
2011,05,23,08,16,11.50
2011,05,23,08,17,11.60
2011,05,23,08,18,11.60
2011,05,23,08,19,11.60
2011,05,23,08,20,11.70
2011,05,23,08,21,11.70
2011,05,23,08,22,11.80
2011,05,23,08,23,11.80
2011,05,23,08,24,11.80
2011,05,23,08,25,11.70
2011,05,23,08,26,11.60
2011,05,23,08,27,11.50
2011,05,23,08,28,11.40
2011,05,23,08,29,11.30
2011,05,23,08,30,11.20
2011,05,23,08,31,11.20
2011,05,23,08,32,11.20
2011,05,23,08,33,11.20
2011,05,23,08,34,11.20
2011,05,23,08,35,11.20
2011,05,23,08,36,11.30
2011,05,23,08,37,11.30
2011,05,23,08,38,11.40
2011,05,23,08,39,11.50
2011,05,23,08,40,11.60
2011,05,23,08,41,11.70
2011,05,23,08,42,11.90
2011,05,23,08,43,12.00
2011,05,23,08,44,12.10
2011,05,23,08,45,12.10
2011,05,23,08,46,12.10
2011,05,23,08,47,12.10
2011,05,23,08,48,12.20
2011,05,23,08,49,12.10
2011,05,23,08,50,12.10
2011,05,23,08,51,12.00
2011,05,23,08,52,12.00
2011,05,23,08,53,12.10
2011,05,23,08,54,12.00
2011,05,23,08,55,12.00
2011,05,23,08,56,12.00
2011,05,23,08,57,12.10
2011,05,23,08,58,12.10
2011,05,23,08,59,12.20
2011,05,23,09,00,12.20
2011,05,23,09,01,12.20
2011,05,23,09,02,12.30
2011,05,23,09,03,12.30
2011,05,23,09,04,12.20
2011,05,23,09,05,12.20
2011,05,23,09,06,12.10
2011,05,23,09,07,12.00
2011,05,23,09,08,11.90
2011,05,23,09,09,11.90
2011,05,23,09,10,11.90
2011,05,23,09,11,11.90
2011,05,23,09,12,11.90
2011,05,23,09,13,11.90
2011,05,23,09,14,11.90
2011,05,23,09,15,12.00
2011,05,23,09,16,12.00
2011,05,23,09,17,12.10
2011,05,23,09,18,12.20
2011,05,23,09,19,12.30
2011,05,23,09,20,12.30
2011,05,23,09,21,12.30
2011,05,23,09,22,12.30
2011,05,23,09,23,12.30
2011,05,23,09,24,12.20
2011,05,23,09,25,12.20
2011,05,23,09,26,12.20
2011,05,23,09,27,12.10
2011,05,23,09,28,12.10
2011,05,23,09,29,12.10
2011,05,23,09,30,12.10
2011,05,23,09,31,12.00
2011,05,23,09,32,12.00
2011,05,23,09,33,11.90
2011,05,23,09,34,11.90
2011,05,23,09,35,11.90
2011,05,23,09,36,11.80
2011,05,23,09,37,11.80
2011,05,23,09,38,11.70
2011,05,23,09,39,11.70
2011,05,23,09,40,11.70
2011,05,23,09,41,11.60
2011,05,23,09,42,11.60
2011,05,23,09,43,11.60
2011,05,23,09,44,11.60
2011,05,23,09,45,11.60
2011,05,23,09,46,11.60
2011,05,23,09,47,11.60
2011,05,23,09,48,11.70
2011,05,23,09,49,11.70
2011,05,23,09,50,11.60
2011,05,23,09,51,11.60
2011,05,23,09,52,11.60
2011,05,23,09,53,11.60
2011,05,23,09,54,11.50
2011,05,23,09,55,11.50
2011,05,23,09,56,11.40
2011,05,23,09,57,11.40
2011,05,23,09,58,11.40
2011,05,23,09,59,11.50
2011,05,23,10,00,11.40
2011,05,23,10,01,11.40
2011,05,23,10,02,11.40
2011,05,23,10,03,11.40
2011,05,23,10,04,11.40
2011,05,23,10,05,11.40
2011,05,23,10,06,11.40
2011,05,23,10,07,11.40
2011,05,23,10,08,11.40
2011,05,23,10,09,11.40
2011,05,23,10,10,11.40
2011,05,23,10,11,11.40
2011,05,23,10,12,11.50
2011,05,23,10,13,11.40
2011,05,23,10,14,11.40
2011,05,23,10,15,11.40
2011,05,23,10,16,11.40
2011,05,23,10,17,11.30
2011,05,23,10,18,11.30
2011,05,23,10,19,11.30
2011,05,23,10,20,11.30
2011,05,23,10,21,11.20
2011,05,23,10,22,11.20
2011,05,23,10,23,11.20
2011,05,23,10,24,11.20
2011,05,23,10,25,11.20
2011,05,23,10,26,11.30
2011,05,23,10,27,11.30
2011,05,23,10,28,11.30
2011,05,23,10,29,11.30
2011,05,23,10,30,11.40
2011,05,23,10,31,11.40
2011,05,23,10,32,11.40
2011,05,23,10,33,11.40
2011,05,23,10,34,11.50
2011,05,23,10,35,11.50
2011,05,23,10,36,11.50
2011,05,23,10,37,11.60
2011,05,23,10,38,11.60
2011,05,23,10,39,11.60
2011,05,23,10,40,11.60
2011,05,23,10,41,11.60
2011,05,23,10,42,11.60
2011,05,23,10,43,11.60
2011,05,23,10,44,11.50
2011,05,23,10,45,11.50
2011,05,23,10,46,11.40
2011,05,23,10,47,11.40
2011,05,23,10,48,11.40
2011,05,23,10,49,11.40
2011,05,23,10,50,11.40
2011,05,23,10,51,11.50
2011,05,23,10,52,11.50
2011,05,23,10,53,11.50
2011,05,23,10,54,11.60
2011,05,23,10,55,11.60
2011,05,23,10,56,11.60
2011,05,23,10,57,11.60
2011,05,23,10,58,11.60
2011,05,23,10,59,11.60
2011,05,23,11,00,11.60
2011,05,23,11,01,11.60
2011,05,23,11,02,11.60
2011,05,23,11,03,11.60
2011,05,23,11,04,11.60
2011,05,23,11,05,11.60
2011,05,23,11,06,11.60
2011,05,23,11,07,11.60
2011,05,23,11,08,11.60
2011,05,23,11,09,11.60
2011,05,23,11,10,11.60
2011,05,23,11,11,11.60
2011,05,23,11,12,11.60
2011,05,23,11,13,11.60
2011,05,23,11,14,11.70
2011,05,23,11,15,11.70
2011,05,23,11,16,11.70
2011,05,23,11,17,11.80
2011,05,23,11,18,11.80
2011,05,23,11,19,11.80
2011,05,23,11,20,11.90
2011,05,23,11,21,11.90
2011,05,23,11,22,11.90
2011,05,23,11,23,12.00
2011,05,23,11,24,12.00
2011,05,23,11,25,12.10
2011,05,23,11,26,12.10
2011,05,23,11,27,12.20
2011,05,23,11,28,12.20
2011,05,23,11,29,12.20
2011,05,23,11,30,12.20
2011,05,23,11,31,12.10
2011,05,23,11,32,12.10
2011,05,23,11,33,12.20
2011,05,23,11,34,12.20
2011,05,23,11,35,12.20
2011,05,23,11,36,12.20
2011,05,23,11,37,12.10
2011,05,23,11,38,12.00
2011,05,23,11,39,12.00
2011,05,23,11,40,12.00
2011,05,23,11,41,11.90
2011,05,23,11,42,11.90
2011,05,23,11,43,11.90
2011,05,23,11,44,11.90
2011,05,23,11,45,11.90
2011,05,23,11,46,11.90
2011,05,23,11,47,11.90
2011,05,23,11,48,11.90
2011,05,23,11,49,11.90
2011,05,23,11,50,11.90
2011,05,23,11,51,11.90
2011,05,23,11,52,11.90
2011,05,23,11,53,11.90
2011,05,23,11,54,12.00
2011,05,23,11,55,12.00
2011,05,23,11,56,12.10
2011,05,23,11,57,12.20
2011,05,23,11,58,12.40
2011,05,23,11,59,12.50
2011,05,23,12,00,12.60
2011,05,23,12,01,12.80
2011,05,23,12,02,12.90
2011,05,23,12,03,13.10
2011,05,23,12,04,13.20
2011,05,23,12,05,13.30
2011,05,23,12,06,13.40
2011,05,23,12,07,13.40
2011,05,23,12,08,13.40
2011,05,23,12,09,13.30
2011,05,23,12,10,13.30
2011,05,23,12,11,13.30
2011,05,23,12,12,13.30
2011,05,23,12,13,13.30
2011,05,23,12,14,13.40
2011,05,23,12,15,13.40
2011,05,23,12,16,13.50
2011,05,23,12,17,13.50
2011,05,23,12,18,13.50
2011,05,23,12,19,13.50
2011,05,23,12,20,13.50
2011,05,23,12,21,13.50
2011,05,23,12,22,13.50
2011,05,23,12,23,13.50
2011,05,23,12,24,13.40
2011,05,23,12,25,13.40
2011,05,23,12,26,13.30
2011,05,23,12,27,13.20
2011,05,23,12,28,13.20
2011,05,23,12,29,13.10
2011,05,23,12,30,13.10
2011,05,23,12,31,13.10
2011,05,23,12,32,13.00
2011,05,23,12,33,13.00
2011,05,23,12,34,12.90
2011,05,23,12,35,12.80
2011,05,23,12,36,12.80
2011,05,23,12,37,12.80
2011,05,23,12,38,12.80
2011,05,23,12,39,12.80
2011,05,23,12,40,13.00
2011,05,23,12,41,13.00
2011,05,23,12,42,13.10
2011,05,23,12,43,13.30
2011,05,23,12,44,13.40
2011,05,23,12,45,13.40
2011,05,23,12,46,13.50
2011,05,23,12,47,13.60
2011,05,23,12,48,13.70
2011,05,23,12,49,13.80
2011,05,23,12,50,14.00
2011,05,23,12,51,14.10
2011,05,23,12,52,14.30
2011,05,23,12,53,14.40
2011,05,23,12,54,14.40
2011,05,23,12,55,14.30
2011,05,23,12,56,14.40
2011,05,23,12,57,14.30
2011,05,23,12,58,14.30
2011,05,23,12,59,14.20
2011,05,23,13,00,14.10
2011,05,23,13,01,14.00
2011,05,23,13,02,13.90
2011,05,23,13,03,13.90
2011,05,23,13,04,13.80
2011,05,23,13,05,13.80
2011,05,23,13,06,13.80
2011,05,23,13,07,13.90
2011,05,23,13,08,13.90
2011,05,23,13,09,13.80
2011,05,23,13,10,13.80
2011,05,23,13,11,13.80
2011,05,23,13,12,13.80
2011,05,23,13,13,13.80
2011,05,23,13,14,13.80
2011,05,23,13,15,13.80
2011,05,23,13,16,13.80
2011,05,23,13,17,13.80
2011,05,23,13,18,13.80
2011,05,23,13,19,13.70
2011,05,23,13,20,13.70
2011,05,23,13,21,13.70
2011,05,23,13,22,13.60
2011,05,23,13,23,13.60
2011,05,23,13,24,13.60
2011,05,23,13,25,13.70
2011,05,23,13,26,13.70
2011,05,23,13,27,13.70
2011,05,23,13,28,13.60
2011,05,23,13,29,13.60
2011,05,23,13,30,13.60
2011,05,23,13,31,13.50
2011,05,23,13,32,13.50
2011,05,23,13,33,13.50
2011,05,23,13,34,13.50
2011,05,23,13,35,13.40
2011,05,23,13,36,13.40
2011,05,23,13,37,13.30
2011,05,23,13,38,13.30
2011,05,23,13,39,13.30
2011,05,23,13,40,13.30
2011,05,23,13,41,13.30
2011,05,23,13,42,13.30
2011,05,23,13,43,13.20
2011,05,23,13,44,13.20
2011,05,23,13,45,13.20
2011,05,23,13,46,13.20
2011,05,23,13,47,13.20
2011,05,23,13,48,13.20
2011,05,23,13,49,13.20
2011,05,23,13,50,13.10
2011,05,23,13,51,13.00
2011,05,23,13,52,13.00
2011,05,23,13,53,12.90
2011,05,23,13,54,12.80
2011,05,23,13,55,12.80
2011,05,23,13,56,12.70
2011,05,23,13,57,12.70
2011,05,23,13,58,12.70
2011,05,23,13,59,12.70
2011,05,23,14,00,12.70
2011,05,23,14,01,12.70
2011,05,23,14,02,12.70
2011,05,23,14,03,12.60
2011,05,23,14,04,12.60
2011,05,23,14,05,12.60
2011,05,23,14,06,12.50
2011,05,23,14,07,12.50
2011,05,23,14,08,12.40
2011,05,23,14,09,12.40
2011,05,23,14,10,12.40
2011,05,23,14,11,12.40
2011,05,23,14,12,12.30
2011,05,23,14,13,12.30
2011,05,23,14,14,12.30
2011,05,23,14,15,12.30
2011,05,23,14,16,12.30
2011,05,23,14,17,12.20
2011,05,23,14,18,12.20
2011,05,23,14,19,12.20
2011,05,23,14,20,12.20
2011,05,23,14,21,12.20
2011,05,23,14,22,12.20
2011,05,23,14,23,12.20
2011,05,23,14,24,12.20
2011,05,23,14,25,12.20
2011,05,23,14,26,12.20
2011,05,23,14,27,12.20
2011,05,23,14,28,12.20
2011,05,23,14,29,12.20
2011,05,23,14,30,12.10
2011,05,23,14,31,12.10
2011,05,23,14,32,12.10
2011,05,23,14,33,12.10
2011,05,23,14,34,12.20
2011,05,23,14,35,12.20
2011,05,23,14,36,12.20
2011,05,23,14,37,12.20
2011,05,23,14,38,12.20
2011,05,23,14,39,12.20
2011,05,23,14,40,12.20
2011,05,23,14,41,12.20
2011,05,23,14,42,12.20
2011,05,23,14,43,12.20
2011,05,23,14,44,12.20
2011,05,23,14,45,12.20
2011,05,23,14,46,12.30
2011,05,23,14,47,12.30
2011,05,23,14,48,12.30
2011,05,23,14,49,12.40
2011,05,23,14,50,12.40
2011,05,23,14,51,12.50
2011,05,23,14,52,12.50
2011,05,23,14,53,12.50
2011,05,23,14,54,12.60
2011,05,23,14,55,12.60
2011,05,23,14,56,12.60
2011,05,23,14,57,12.60
2011,05,23,14,58,12.60
2011,05,23,14,59,12.60
2011,05,23,15,00,12.60
2011,05,23,15,01,12.60
2011,05,23,15,02,12.60
2011,05,23,15,03,12.60
2011,05,23,15,04,12.70
2011,05,23,15,05,12.70
2011,05,23,15,06,12.70
2011,05,23,15,07,12.80
2011,05,23,15,08,12.80
2011,05,23,15,09,12.80
2011,05,23,15,10,12.80
2011,05,23,15,11,12.80
2011,05,23,15,12,12.90
2011,05,23,15,13,12.90
2011,05,23,15,14,12.90
2011,05,23,15,15,12.90
2011,05,23,15,16,12.90
2011,05,23,15,17,12.90
2011,05,23,15,18,12.90
2011,05,23,15,19,12.90
2011,05,23,15,20,12.90
2011,05,23,15,21,12.90
2011,05,23,15,22,12.90
2011,05,23,15,23,12.90
2011,05,23,15,24,12.90
2011,05,23,15,25,12.90
2011,05,23,15,26,12.80
2011,05,23,15,27,12.80
2011,05,23,15,28,12.70
2011,05,23,15,29,12.60
2011,05,23,15,30,12.60
2011,05,23,15,31,12.50
2011,05,23,15,32,12.50
2011,05,23,15,33,12.50
2011,05,23,15,34,12.40
2011,05,23,15,35,12.40
2011,05,23,15,36,12.40
2011,05,23,15,37,12.40
2011,05,23,15,38,12.40
2011,05,23,15,39,12.40
2011,05,23,15,40,12.40
2011,05,23,15,41,12.40
2011,05,23,15,42,12.40
2011,05,23,15,43,12.40
2011,05,23,15,44,12.40
2011,05,23,15,45,12.40
2011,05,23,15,46,12.30
2011,05,23,15,47,12.30
2011,05,23,15,48,12.30
2011,05,23,15,49,12.30
2011,05,23,15,50,12.30
2011,05,23,15,51,12.30
2011,05,23,15,52,12.30
2011,05,23,15,53,12.30
2011,05,23,15,54,12.30
2011,05,23,15,55,12.30
2011,05,23,15,56,12.30
2011,05,23,15,57,12.30
2011,05,23,15,58,12.30
2011,05,23,15,59,12.40
2011,05,23,16,00,12.40
2011,05,23,16,01,12.30
2011,05,23,16,02,12.30
2011,05,23,16,03,12.30
2011,05,23,16,04,12.30
2011,05,23,16,05,12.30
2011,05,23,16,06,12.40
2011,05,23,16,07,12.40
2011,05,23,16,08,12.40
2011,05,23,16,09,12.40
2011,05,23,16,10,12.40
2011,05,23,16,11,12.40
2011,05,23,16,12,12.40
2011,05,23,16,13,12.40
2011,05,23,16,14,12.40
2011,05,23,16,15,12.40
2011,05,23,16,16,12.40
2011,05,23,16,17,12.40
2011,05,23,16,18,12.40
2011,05,23,16,19,12.40
2011,05,23,16,20,12.40
2011,05,23,16,21,12.40
2011,05,23,16,22,12.40
2011,05,23,16,23,12.40
2011,05,23,16,24,12.40
2011,05,23,16,25,12.40
2011,05,23,16,26,12.40
2011,05,23,16,27,12.40
2011,05,23,16,28,12.50
2011,05,23,16,29,12.50
2011,05,23,16,30,12.60
2011,05,23,16,31,12.60
2011,05,23,16,32,12.70
2011,05,23,16,33,12.70
2011,05,23,16,34,12.80
2011,05,23,16,35,12.90
2011,05,23,16,36,12.90
2011,05,23,16,37,13.00
2011,05,23,16,38,13.10
2011,05,23,16,39,13.10
2011,05,23,16,40,13.20
2011,05,23,16,41,13.20
2011,05,23,16,42,13.20
2011,05,23,16,43,13.20
2011,05,23,16,44,13.20
2011,05,23,16,45,13.20
2011,05,23,16,46,13.20
2011,05,23,16,47,13.20
2011,05,23,16,48,13.30
2011,05,23,16,49,13.30
2011,05,23,16,50,13.30
2011,05,23,16,51,13.30
2011,05,23,16,52,13.30
2011,05,23,16,53,13.30
2011,05,23,16,54,13.40
2011,05,23,16,55,13.40
2011,05,23,16,56,13.40
2011,05,23,16,57,13.40
2011,05,23,16,58,13.30
2011,05,23,16,59,13.30
2011,05,23,17,00,13.30
2011,05,23,17,01,13.20
2011,05,23,17,02,13.20
2011,05,23,17,03,13.20
2011,05,23,17,04,13.10
2011,05,23,17,05,13.10
2011,05,23,17,06,13.10
2011,05,23,17,07,13.10
2011,05,23,17,08,13.10
2011,05,23,17,09,13.10
2011,05,23,17,10,13.10
2011,05,23,17,11,13.10
2011,05,23,17,12,13.10
2011,05,23,17,13,13.10
2011,05,23,17,14,13.10
2011,05,23,17,15,13.10
2011,05,23,17,16,13.10
2011,05,23,17,17,13.10
2011,05,23,17,18,13.10
2011,05,23,17,19,13.20
2011,05,23,17,20,13.20
2011,05,23,17,21,13.20
2011,05,23,17,22,13.20
2011,05,23,17,23,13.20
2011,05,23,17,24,13.20
2011,05,23,17,25,13.20
2011,05,23,17,26,13.20
2011,05,23,17,27,13.20
2011,05,23,17,28,13.20
2011,05,23,17,29,13.20
2011,05,23,17,30,13.10
2011,05,23,17,31,13.10
2011,05,23,17,32,13.10
2011,05,23,17,33,13.10
2011,05,23,17,34,13.10
2011,05,23,17,35,13.10
2011,05,23,17,36,13.10
2011,05,23,17,37,13.10
2011,05,23,17,38,13.10
2011,05,23,17,39,13.10
2011,05,23,17,40,13.00